Regional Weather Roundup
Issued by NWS

Home | Current Version | Previous Version | Text Only | Print | Product List | Glossary On
Versions: 1 2 3 4 5 6 7 8 9 10 11 12 13 14 15 16 17 18 19 20 21 22 23 24 25 26 27 28 29 30 31 32 33 34 35 36 37 38 39 40 41 42 43 44 45 46 47 48 49 50
000
ASUS44 KMEG 081110
RWRTN
TENNESSEE HOURLY STATE WEATHER ROUNDUP
NATIONAL WEATHER SERVICE MEMPHIS TN
500 AM CST MON FEB 08 2016

TNZ002-004-019-021-049-052-054-088>092-081200-
WEST TENNESSEE

CITY           SKY/WX    TMP DP  RH WIND       PRES   REMARKS
MEMPHIS INTL   CLEAR     43  22  43 NW12G24   29.93S
NWS MEMPHIS      N/A     42 N/A N/A MISG        N/A
JACKSON        CLEAR     41  22  46 W18       29.86S
DYERSBURG      PTCLDY    39  23  52 W14G22    29.89R WCI  31
UNION CITY     CLEAR     37  25  60 W10       29.82S WCI  30
PARIS          CLEAR     37  21  52 W13       29.80S WCI  29
$$

TNZ008-025-027-028-033-062-065-066-081200-
NORTH MIDDLE TENNESSEE

CITY           SKY/WX    TMP DP  RH WIND       PRES   REMARKS
NASHVILLE      CLEAR     40  28  62 SW7       29.79F
CLARKSVILLE    CLEAR     40  28  62 W8        29.77F WCI  34
SMYRNA         CLEAR     39  30  70 S6        29.80F WCI  35
COOKEVILLE     PTCLDY    39  32  75 CALM      29.76F
CROSSVILLE     CLOUDY    39  28  64 W8        29.78F WCI  33
$$

TNZ061-075-076-078-094-096-097-081200-
SOUTH MIDDLE TENNESSEE

CITY           SKY/WX    TMP DP  RH WIND       PRES   REMARKS
FAYETTEVILLE   CLOUDY    43  32  65 S5        29.82F
TULLAHOMA      PTCLDY    37  28  70 S5        29.80F WCI  34
WINCHESTER     CLOUDY    41  30  65 SW5       29.82F
MCMINNVILLE    MOCLDY    39  28  65 S3        29.79F
COLUMBIA       PTCLDY    39  34  81 SW6       29.79F WCI  35
SHELBYVILLE    CLOUDY    39  32  75 SW6       29.81F WCI  35
$$

TNZ017-018-042-046-047-081200-
NORTHEAST TENNESSEE

CITY           SKY/WX    TMP DP  RH WIND       PRES   REMARKS
TRI CITIES     MOCLDY    26  23  88 CALM      29.77F
$$

TNZ012-013-036-069-073-074-081200-
CENTRAL EAST TENNESSEE

CITY           SKY/WX    TMP DP  RH WIND       PRES   REMARKS
KNOXVILLE      NOT AVBL
OAK RIDGE      CLOUDY    37  27  67 CALM      29.80S
GATLINBURG     SUNNY     30  23  74 CALM      29.76F
MORRISTOWN     PTSUNNY   37  23  56 SW7       29.75F WCI  32
$$

TNZ083-085-099-081200-
SOUTHEAST TENNESSEE

CITY           SKY/WX    TMP DP  RH WIND       PRES   REMARKS
CHATTANOOGA    MOCLDY    45  26  47 SW6       29.83S
$$

SKY/WX REPORTED AS FAIR MEANS FEW OR NO CLOUDS BELOW
12 THOUSAND FEET.




USA.gov is the U.S. government's official web portal to all federal, state and local government web resources and services.